This demonstration page uses our WeatherBlox Daily Observations layout. Learn more.

Left ArrowRight Arrow

Hourly Observations for April 21, 2015

Temp ( °F °C ) Dew Point ( °F °C ) Humidity (%) Winds ( mph kmh ) Pressure ( in mb ) Visibility ( mi km ) Precip ( " mm )
12:53 am 00:53 Clear 40 4.4 29 -1.7 65 65 WSW 5 7 29.84 1010 10 16 N/A
1:53 am 01:53 Clear 40 4.4 28 -2.2 63 63 N N/A 29.84 1010 10 16 N/A
2:53 am 02:53 Clear 34 1.1 27 -2.8 76 76 N N/A 29.85 1011 10 16 N/A
3:53 am 03:53 Clear 35 1.7 27 -2.8 72 72 SW 3 6 29.86 1011 10 16 N/A
4:53 am 04:53 Mostly Clear 33 0.6 26 -3.3 75 75 SSW 5 7 29.86 1011 10 16 N/A
5:53 am 05:53 Mostly Cloudy 34 1.1 27 -2.8 76 76 N N/A 29.87 1011 10 16 N/A
6:53 am 06:53 Sunny 30 -1.1 26 -3.3 85 85 N N/A 29.89 1012 10 16 N/A
7:53 am 07:53 Sunny 41 5 30 -1.1 65 65 N N/A 29.89 1012 10 16 N/A
8:53 am 08:53 Sunny 49 9.4 31 -0.6 50 50 N N/A 29.89 1012 10 16 N/A
9:53 am 09:53 Sunny 56 13.3 30 -1.1 37 37 ENE 6 9 29.89 1012 10 16 N/A
10:53 am 10:53 Sunny 58 14.4 31 -0.6 36 36 E 15 24 29.92 1013 10 16 N/A
11:53 am 11:53 Sunny 60 15.6 30 -1.1 32 32 E 14 22 29.91 1013 10 16 N/A
12:53 pm 12:53 Sunny 63 17.2 29 -1.7 28 28 E 9 15 29.90 1012 10 16 N/A
1:53 pm 13:53 Sunny 65 18.3 28 -2.2 25 25 VRB 6 9 29.88 1012 10 16 N/A
2:53 pm 14:53 Sunny 65 18.3 27 -2.8 24 24 E 8 13 29.88 1012 10 16 N/A
3:53 pm 15:53 Sunny 66 18.9 28 -2.2 24 24 E 13 20 29.87 1011 10 16 N/A
4:53 pm 16:53 Sunny 66 18.9 28 -2.2 24 24 E 16 26 29.86 1011 10 16 N/A
5:53 pm 17:53 Sunny 65 18.3 28 -2.2 25 25 E 12 19 29.85 1011 10 16 N/A
6:53 pm 18:53 Sunny 63 17.2 30 -1.1 29 29 E 17 28 29.85 1011 10 16 N/A
7:53 pm 19:53 Sunny 58 14.4 31 -0.6 36 36 E 15 24 29.83 1010 10 16 N/A
8:53 pm 20:53 Clear 54 12.2 31 -0.6 42 42 E 17 28 29.82 1010 10 16 N/A
9:53 pm 21:53 Clear 51 10.6 31 -0.6 46 46 E 15 24 29.82 1010 10 16 N/A
10:53 pm 22:53 Clear 49 9.4 30 -1.1 48 48 E 14 22 29.80 1009 10 16 N/A
11:53 pm 23:53 Clear 45 7.2 29 -1.7 54 54 E 13 20 29.80 1009 10 16 N/A

Powered by AerisWeather